Regional Weather Roundup
Issued by NWS

Home | Current Version | Previous Version | Text Only | Print | Product List | Glossary Off
Versions: 1 2 3 4 5 6 7 8 9 10 11 12 13 14 15 16 17 18 19 20 21 22 23 24 25 26 27 28 29 30 31 32 33 34 35 36 37 38 39 40 41 42 43 44 45 46 47 48 49 50

556
ASUS43 KOAX 191102
RWRNE

WEATHER ROUNDUP FOR NEBRASKA
NATIONAL WEATHER SERVICE OMAHA NE
500 AM CST THU JAN 19 2017

NOTES: SATELLITE DATA IS BEING USED TO AUGMENT CLOUD COVER ABOVE
       12000 FEET.
       "FAIR" INDICATES FEW OR NO CLOUDS BELOW 12,000 FEET WITH NO
       SIGNIFICANT WEATHER AND/OR OBSTRUCTIONS TO VISIBILITY.

  * THESE STATIONS DO NOT REPORT WEATHER SUCH AS RAIN...SNOW OR FOG.

NEZ001>004-019>022-054>056-191200-
NEBRASKA PANHANDLE

CITY           SKY/WX    TMP DP  RH WIND       PRES   REMARKS
SCOTTSBLUFF    CLOUDY    27  19  72 NW9       29.60F WCI  18
ALLIANCE       CLOUDY    14  10  84 CALM      29.59F
CHADRON        CLOUDY    23  16  74 W7        29.59F WCI  15
KIMBALL        CLOUDY    29  22  74 CALM      29.62S
SIDNEY         CLOUDY    25  18  74 W10       29.62F WCI  15
$$

NEZ057>060-069>072-079>082-191200-
SOUTHWEST NEBRASKA

CITY           SKY/WX    TMP DP  RH WIND       PRES   REMARKS
NORTH PLATTE   FOG       33  32  96 W3        29.66F VSB 1/4
IMPERIAL       CLEAR     26  22  84 W6        29.63F WCI  19
LEXINGTON      CLOUDY    38  37  96 S5        29.68F FOG     WCI  35
MCCOOK         FOG       34  34 100 SW5       29.68F VSB 1/4 WCI  30
OGALLALA       CLOUDY    21  19  93 W5        29.64S WCI  15
$$

NEZ005>010-023>029-035>040-094-191200-
NORTH CENTRAL NEBRASKA

CITY           SKY/WX    TMP DP  RH WIND       PRES   REMARKS
VALENTINE      CLOUDY    27  22  81 SW13      29.60F WCI  16
AINSWORTH      CLEAR     31  31 100 S10       29.62F WCI  23
BROKEN BOW     FOG       37  37 100 S5        29.67F VSB 1/4 WCI  33
O`NEILL        CLOUDY    37  37  99 S12       29.67F FOG     WCI  29
ORD            FOG       36  35  96 S9        29.69F VSB 1/4 WCI  29
THEDFORD       CLOUDY    28  27  96 S6        29.63S FOG     WCI  21
$$

NEZ041-046>049-061>064-073>077-083>087-191200-
SOUTH CENTRAL NEBRASKA

CITY           SKY/WX    TMP DP  RH WIND       PRES   REMARKS
GRAND ISLAND   FOG       37  37 100 S13       29.73F VSB 1/2 WCI  29
AURORA         FOG       37  37  99 S8        29.74S VSB 1/2 WCI  30
HASTINGS       FOG       37  36  96 S6        29.74S VSB 1/4 WCI  32
HEBRON         CLOUDY    39  38  97 S6        29.76F FOG     WCI  34
HOLDREGE       FOG       38  37  97 S5        29.70S VSB 1/2 WCI  34
KEARNEY *      CLOUDY    37  36  93 S7        29.71S VSB 3/4 WCI  32
YORK           CLEAR     36  36 100 S10       29.75F FOG     WCI  28
$$

NEZ011>018-030>034-042>045-191200-
NORTHEAST NEBRASKA

CITY           SKY/WX    TMP DP  RH WIND       PRES   REMARKS
NORFOLK        CLEAR     35  32  88 S10       29.73S WCI  27
ALBION         CLOUDY    34  32  92 CALM      29.73S
BLAIR          CLEAR     36  33  92 SE6       29.78F WCI  31
FREMONT        CLEAR     33  33  98 CALM      29.79F
TEKAMAH        CLEAR     33  31  92 SE8       29.80F WCI  26
WAYNE          CLEAR     35  33  94 S10       29.74F WCI  27
$$

NEZ050>053-065>068-078-088>093-191200-
SOUTHEAST NEBRASKA

CITY           SKY/WX    TMP DP  RH WIND       PRES   REMARKS
LINCOLN        CLEAR     34  32  92 S3        29.79F
OMAHA EPPLEY   PTCLDY    33  29  85 E3        29.81F
BEATRICE       MOCLDY    38  36  92 S7        29.77F WCI  33
FALLS CITY     FOG       34  34 100 E5        29.81F VSB 3/4 WCI  30
NEBRASKA CITY  MOCLDY    35  35 100 S8        29.80F FOG     WCI  29
PLATTSMOUTH    MOCLDY    37  34  91 SE9       29.80F FOG     WCI  30
$$

NEZ044-045-051>053-067-191200-
OMAHA AREA

CITY           SKY/WX    TMP DP  RH WIND       PRES   REMARKS
OMAHA EPPLEY   PTCLDY    33  29  85 E3        29.81F
BLAIR          CLEAR     36  33  92 SE6       29.78F WCI  31
FREMONT        CLEAR     33  33  98 CALM      29.79F
MILLARD        PTCLDY    35  34  94 CALM      29.80F FOG
OFFUTT AFB     PTCLDY    35  35 100 SE7       29.80F WCI  29
PLATTSMOUTH    MOCLDY    37  34  91 SE9       29.80F FOG     WCI  30
WAHOO          PTSUNNY   32  31  96 SE6       29.78F WCI  26
$$




USA.gov is the U.S. government's official web portal to all federal, state and local government web resources and services.